Location: Roland
(31.1349°N, 85.4372°W)
Time: 04:49:01
(UTC+00:00)

Vanguard 2 Rocket - Pass Details

Date: 06 December 2021
Orbit: 554 x 3324 km, 32.9° (Epoch: 16 January)

Event Time Altitude Azimuth Distance (km) Brightness Sun altitude
Rises 01:09:46 0° 275° (W) 3,479 11.0 -31.5°
Reaches altitude 10° 01:11:49 10° 277° (W) 2,757 10.2 -32.0°
Maximum altitude 01:18:36 81° 5° (N) 1,448 7.6 -33.4°
Enters shadow 01:19:11 77° 49° (NE) 1,505 7.7 -33.5°
